• Processing (Info)

  • MPEC 2019-U102 : 2019 UF3

    The following Minor Planet Electronic Circular may be linked-to from your own Web pages, but must not otherwise be redistributed electronically.

    A form allowing access to any MPEC is at the bottom of this page.


    Read MPEC 2019-U101 Read MPEC 2019-U103


    M.P.E.C. 2019-U102                             Issued 2019 October 22, 20:49 UT
    
         The Minor Planet Electronic Circulars contain information on unusual
             minor planets and routine data on comets.  They are published
        on behalf of Division F of the International Astronomical Union by the
              Minor Planet Center, Smithsonian Astrophysical Observatory,
                              Cambridge, MA 02138, U.S.A.
    
                 Prepared using the Tamkin Foundation Computer Network
    
                                  MPC@CFA.HARVARD.EDU
                URL https://www.minorplanetcenter.net/    ISSN 1523-6714
    
                                    2019 UF3                                 
    
    
    Observations:
         K19U03F  C2019 10 21.33093123 55 30.521+01 31 55.07               VEU102F52
         K19U03F  C2019 10 21.34292123 55 23.022+01 35 44.03         19.4 GVEU102F52
         K19U03F* C2019 10 21.35522823 55 15.335+01 39 39.00         19.98wUEU102F52
         K19U03F  C2019 10 21.36748523 55 07.687+01 43 32.59         20.12wUEU102F52
         K19U03F KC2019 10 21.73414723 51 43.65 +03 39 07.8          19.8 GVEU102L01
         K19U03F KC2019 10 21.73572823 51 42.69 +03 39 38.5          19.9 GVEU102L01
         K19U03F pC2019 10 21.73732323 51 41.78 +03 40 08.2          19.7 GVEU102L01
         K19U03F pC2019 10 21.73931923 51 40.58 +03 40 46.1          19.8 GVEU102L01
         K19U03F  C2019 10 22.09447423 48 18.12 +05 33 22.4          19.7 GVEU102H01
         K19U03F  C2019 10 22.09792223 48 16.03 +05 34 27.6          19.6 GVEU102H01
         K19U03F  C2019 10 22.10808523 48 09.88 +05 37 40.0          19.8 GVEU102H01
         K19U03F  C2019 10 22.11497723 48 05.68 +05 39 50.7          19.7 GVEU102H01
         K19U03F KC2019 10 22.80096 23 41 35.20 +09 13 25.9          20.2 GVEU102K87
         K19U03F KC2019 10 22.80147 23 41 34.90 +09 13 35.6          20.2 GVEU102K87
         K19U03F KC2019 10 22.80199 23 41 34.61 +09 13 45.3          19.9 GVEU102K87
         K19U03F KC2019 10 22.83102 23 41 17.17 +09 22 50.4          19.1 RVEU102K51
         K19U03F KC2019 10 22.83227 23 41 16.41 +09 23 13.5          19.3 RVEU102K51
         K19U03F KC2019 10 22.83352 23 41 15.67 +09 23 36.6          19.3 RVEU102K51
    
    Observer details:
    F52 Pan-STARRS 2, Haleakala.  Observers J. Bulger, K. Chambers, T. Dukes, T. 
       Lowe, E. Magnier, A. Schultz, M. Willman.  Measurers S. Chastel, M. Huber, 
       Y. Ramanjooloo, R. Wainscoat, R. Weryk, K. Chambers, T. de Boer, L. Denneau, 
       J. Fairlamb, H. Flewelling, C.-C. Lin, E. Magnier.  1.8-m Ritchey-Chretien + 
       CCD.
    H01 Magdalena Ridge Observatory, Socorro.  Observers W. H. Ryan, E. V. Ryan.  
        Measurer W. H. Ryan.  2.4-m f/8.9 Ritchey-Chretien + CCD.
    K51 Osservatorio del Celado, Castello Tesino.  Observers G. Favero, R. Furgoni. 
        Measurer R. Furgoni.  0.80-m f/4 reflector + CCD.
    K87 Dettelbach Vineyard Observatory.  Observer B. Haeusler.  0.3-m f/5.7 
       Schmidt-Cassegrain + CCD.
    L01 Visnjan Observatory, Tican.  Observer K. Korlevic.  1.0-m f/2.9 reflector + 
       CCD.
    
    Orbital elements:
    2019 UF3                                                 Earth MOID = 0.0593 AU
    Epoch 2019 Apr. 27.0 TT = JDT 2458600.5                 Prema
    M 240.84129              (2000.0)            P               Q
    n   0.62040053     Peri.   15.24096     +0.76699745     -0.62206769
    a   1.3615114      Node    25.37134     +0.54361485     +0.49973431
    e   0.2296814      Incl.   21.53899     +0.34087799     +0.60274157
    P   1.59           H   24.5           G   0.15           U   7
    Residuals in seconds of arc
    191021 F52  0.1+  0.2-    191021 L01  0.2+  0.2-    191022 K87  0.0   0.3-
    191021 F52  0.0   0.0     191021 L01  0.1+  0.3-    191022 K87  0.1+  0.0
    191021 F52  0.0   0.2+    191022 H01  0.0   0.1+    191022 K87  0.4+  0.0
    191021 F52  0.1+  0.0     191022 H01  0.1-  0.0     191022 K51  0.1-  0.2+
    191021 L01  0.1-  0.1-    191022 H01  0.1+  0.1-    191022 K51  0.2-  0.1+
    191021 L01  0.4-  0.5+    191022 H01  0.1-  0.1+    191022 K51  0.0   0.0
    
    Ephemeris:
    2019 UF3                 a,e,i = 1.36, 0.23, 22                  q = 1.0488
    Date    TT    R. A. (2000) Decl.     Delta      r    Elong.  Phase     V
    2019 09 22    02 59 04.0 -55 12 34   0.2087  1.1049   113.8    56.2    23.4
    ...
    2019 10 07    01 57 12.0 -46 16 12   0.1184  1.0741   126.3    48.6    21.8
    ...
    2019 10 15    00 54 58.8 -27 56 40   0.07945 1.0622   143.4    34.0    20.5
    ...
    2019 10 21    23 58 39.7 -00 12 48   0.06704 1.0556   152.6    25.7    19.9
    2019 10 22    23 49 07.7 +05 04 25   0.06728 1.0548   151.0    27.2    20.0
    2019 10 23    23 39 40.9 +10 15 47   0.06823 1.0539   148.5    29.6    20.1
    ...
    2019 10 29    22 47 09.5 +35 02 55   0.08613 1.0502   129.3    47.1    21.1
    ...
    2019 11 06    21 54 20.7 +51 03 40   0.1273  1.0487   113.5    60.1    22.3
    ...
    2019 11 21    21 03 27.5 +61 38 48   0.2152  1.0564   102.7    65.8    23.6
    
    A. U. Tomatic                (C) Copyright 2019 MPC           M.P.E.C. 2019-U102
    


    Read MPEC 2019-U101 Read MPEC 2019-U103


    MPEC number:

    Enter an MPEC number in one of the following forms:

    • 1997-B01 (the full form)
    • J97B01 (the packed version of the full form)
    • B01 (the abbreviated form)